Wind_Speed
44 39 36 34 31 31 28 28 19 18 17 15 12 12 10 9 7 8 8 7 7 7 7 7 8 7 5 5 4 3 3 3 4 6 7 8 8 9 10 12 13 13 14 14 14 15 15 15 16
45 42 40 38 36 33 28 30 22 22 19 18 15 14 12 10 7 9 10 9 9 9 8 8 9 8 7 4 2 2 1 3 4 6 8 10 11 11 12 12 13 14 15 16 17 18 19 19 20
49 46 43 42 41 38 29 31 27 22 22 21 19 17 16 13 8 11 13 11 11 10 9 8 9 7 5 3 1 1 2 4 7 8 10 11 13 13 13 13 14 15 16 17 18 19 20 21 22
52 50 50 47 41 35 34 31 26 23 23 22 20 17 17 16 11 14 15 14 12 11 10 8 7 6 4 3 3 3 4 6 9 11 12 13 14 14 14 14 15 16 17 18 19 19 20 21 21
56 53 52 49 42 36 31 25 23 23 23 24 23 20 20 19 17 18 19 17 15 12 11 9 7 6 5 5 5 5 6 8 11 12 13 14 14 14 15 16 17 18 19 20 21 22 22 22 21
60 58 54 47 36 35 26 26 25 22 25 25 25 22 23 23 21 23 22 19 17 14 12 11 9 7 6 7 7 7 9 11 12 15 16 16 17 17 18 19 20 22 22 23 24 24 24 23 22
63 59 53 40 36 36 25 25 23 23 23 25 25 24 25 25 24 26 25 22 20 17 15 12 9 9 8 8 8 9 11 12 14 15 17 18 18 19 20 22 23 24 24 24 25 26 26 26 25
59 58 52 46 42 34 28 25 23 24 27 23 26 23 24 24 25 27 27 24 21 18 15 13 11 9 9 9 9 10 12 15 16 17 18 18 19 21 23 24 25 25 26 27 27 27 28 28 28
61 59 53 48 43 33 28 27 25 24 24 26 25 23 22 26 25 29 29 26 22 19 16 14 12 10 9 9 10 12 14 16 17 18 19 21 23 24 25 27 27 26 27 27 28 29 30 30 30
62 57 50 44 39 39 31 31 27 27 26 25 24 23 23 26 26 31 30 26 23 20 16 14 13 10 10 11 12 14 16 17 20 22 24 26 27 28 28 28 28 28 29 29 30 31 32 33 33
62 59 53 49 41 36 33 34 29 28 26 24 24 24 24 25 26 31 29 26 22 19 16 15 12 11 12 12 14 16 18 20 22 25 27 28 30 30 30 28 28 29 29 32 32 34 35 36 36
61 58 58 48 40 38 35 34 30 29 26 23 23 23 23 24 27 31 28 25 21 19 17 15 13 13 14 14 16 19 21 23 25 27 28 30 32 31 30 29 29 30 32 34 36 37 38 39 39
63 59 53 43 42 40 37 34 33 30 25 24 24 24 25 26 29 29 27 24 23 18 17 16 14 14 14 16 18 21 23 25 27 28 29 31 31 31 31 32 33 34 36 38 41 42 43 43 43
63 58 49 46 43 41 38 35 34 29 26 26 26 25 25 28 29 26 23 23 21 20 17 16 16 16 17 19 21 23 25 27 29 29 30 31 31 32 33 34 36 38 40 43 45 46 46 45 44
65 56 49 47 45 43 39 37 35 29 26 27 26 25 26 30 31 32 27 27 25 21 21 18 18 17 18 21 24 26 27 29 31 31 32 33 32 33 35 37 40 43 46 48 49 50 50 48 45
62 56 52 48 46 44 41 37 32 30 27 28 26 27 28 30 31 30 26 25 23 22 20 19 18 20 22 24 26 28 29 32 33 33 34 36 36 36 38 41 43 46 49 52 55 55 54 48 43
61 55 52 48 47 44 42 39 35 31 27 28 28 29 30 31 31 28 26 25 24 22 22 20 19 22 24 26 28 30 32 34 35 35 37 39 40 41 43 45 48 50 54 56 56 54 49 43 40
60 55 51 49 47 45 42 40 34 32 29 29 30 30 31 32 30 27 26 24 23 23 22 21 22 24 27 29 30 33 34 37 38 39 40 42 44 45 47 50 53 55 56 52 46 43 42 40 41
55 53 53 50 45 42 40 37 35 32 30 30 32 32 32 31 29 27 26 26 25 24 24 24 25 27 29 31 33 35 37 40 42 42 43 45 47 49 53 56 58 59 52 47 48 46 45 44 41
57 55 50 44 42 41 38 34 33 33 31 32 33 33 34 32 28 27 27 27 26 26 26 27 29 30 32 35 36 38 41 44 44 44 47 49 51 54 58 61 58 50 48 49 49 46 42 41 40
53 48 48 43 41 39 35 36 32 33 32 33 33 33 32 30 29 28 28 27 28 28 29 30 32 34 36 37 38 41 46 46 46 47 49 52 56 61 58 53 52 53 51 51 49 44 39 34 30
51 49 47 42 40 39 38 37 34 33 32 33 33 31 30 30 29 29 29 29 30 31 32 33 35 37 38 39 42 47 47 48 49 50 53 57 57 54 58 58 54 54 51 47 43 38 33 28 27
47 46 44 42 40 38 37 35 33 33 33 33 32 31 30 30 30 30 31 32 32 33 34 35 37 39 40 42 47 49 49 50 52 55 56 53 57 58 57 52 46 44 43 36 29 28 27 26 26
43 43 42 40 37 37 36 34 32 32 32 32 31 31 30 30 30 31 32 32 33 34 36 38 40 41 44 48 50 49 51 54 54 51 55 56 53 42 38 39 36 31 28 23 22 23 23 22 22
41 41 40 38 36 34 32 33 32 31 31 30 30 29 29 30 30 31 32 33 35 37 39 40 42 45 49 50 50 53 52 49 51 54 51 39 36 37 36 33 31 27 22 19 19 18 19 19 18
36 37 35 35 32 30 29 31 30 29 29 28 28 28 29 30 31 32 34 37 39 40 41 44 48 50 50 51 50 48 49 52 52 46 36 37 39 38 34 34 31 25 20 17 16 16 17 18 18
31 31 30 28 27 26 27 27 25 25 25 26 27 29 30 32 34 36 38 39 41 43 46 49 50 48 47 47 49 51 52 49 43 37 37 39 37 32 31 30 24 20 16 16 15 16 17 19 18
27 28 27 26 27 26 26 25 25 26 27 29 31 33 35 36 37 38 40 43 46 48 50 49 46 47 49 50 51 50 47 41 36 37 39 36 32 29 30 29 26 23 19 17 17 19 18 20 19
24 25 25 26 26 27 26 26 27 28 30 31 33 35 36 37 39 42 46 48 47 47 47 48 49 50 50 49 46 45 40 37 37 37 33 28 28 28 30 30 28 24 23 22 22 21 21 25 21
23 23 24 25 25 26 27 26 28 30 32 35 36 38 40 43 46 47 47 46 45 47 49 50 51 50 46 44 42 38 37 37 36 30 26 28 30 33 33 32 29 26 25 25 25 27 27 29 26
Wind_Direction
228 233 238 242 243 250 255 255 254 252 254 268 270 275 282 295 276 249 227 196 183 175 168 154 149 153 154 135 111 86 52 29 26 15 3 353 350 342 337 334 330 328 326 326 324 320 317 314 312
229 234 239 244 245 250 251 252 253 252 254 259 263 265 270 285 274 229 204 190 186 174 168 158 156 157 160 160 139 102 28 352 354 351 342 337 332 331 328 327 325 324 323 321 320 318 314 311 308
230 234 240 244 247 247 244 245 245 251 251 250 259 259 262 269 257 212 199 194 188 176 169 164 168 174 185 183 196 320 327 323 327 328 328 330 328 327 323 322 320 320 320 319 317 315 312 309 307
231 234 238 243 247 251 241 248 248 241 245 244 247 257 255 257 232 206 204 199 195 183 181 181 189 190 222 245 272 291 314 317 319 322 324 325 324 323 322 320 319 318 317 317 315 314 312 310 308
229 233 237 241 244 241 240 240 234 235 236 235 241 251 248 252 231 208 208 204 203 197 193 199 207 218 243 270 284 301 316 321 324 325 325 324 323 320 317 317 318 317 316 314 313 312 310 307 303
229 231 235 238 238 237 232 231 230 231 232 230 237 240 245 244 234 213 208 209 205 206 208 211 219 242 255 273 289 306 317 322 324 325 328 327 324 321 317 316 315 314 314 314 312 310 307 302 298
226 229 233 234 232 235 230 228 229 229 229 229 231 232 240 240 236 220 207 210 210 209 216 221 231 251 265 277 290 305 312 318 321 322 321 320 315 314 312 310 310 310 310 310 309 307 305 300 296
224 227 230 228 229 231 229 233 232 230 229 227 230 230 235 234 236 223 214 209 215 214 220 227 238 254 266 278 295 307 315 317 319 317 315 314 311 309 307 306 304 305 305 306 304 303 302 300 298
220 224 224 225 227 228 227 232 236 235 227 227 230 232 236 235 237 226 215 209 216 222 226 236 248 258 267 281 296 309 316 320 321 321 317 314 309 304 302 301 301 300 301 302 304 305 301 299 297
220 223 223 225 224 226 222 228 232 234 230 229 232 234 234 238 234 224 218 215 217 225 233 241 253 259 272 284 302 314 321 323 324 321 317 312 305 299 297 297 297 299 301 302 303 303 304 302 300
217 220 221 219 219 224 223 228 231 234 234 233 229 232 234 233 227 219 217 219 223 230 240 252 255 266 278 293 308 320 323 321 320 317 311 305 299 296 296 296 297 298 300 301 302 302 300 298 298
217 217 219 216 216 220 222 226 230 234 236 240 234 237 236 233 220 211 213 219 228 234 246 254 262 267 280 302 311 316 319 318 317 314 310 305 300 297 294 294 295 297 299 299 301 300 299 296 293
215 217 219 216 215 219 222 224 229 233 233 237 235 233 231 220 209 210 210 220 229 237 249 255 260 272 290 298 306 313 317 317 317 314 308 302 299 295 293 294 295 297 298 298 298 298 297 296 292
213 214 213 212 213 216 220 223 227 231 232 236 236 230 222 208 201 212 217 228 232 240 250 259 265 274 284 295 306 311 313 315 315 312 306 300 297 294 293 293 294 295 296 296 297 298 297 297 295
211 211 211 211 211 215 217 221 226 229 231 235 233 220 213 204 205 208 214 225 235 245 247 249 260 273 288 299 306 306 309 311 313 310 305 298 293 291 291 292 293 295 296 296 296 297 298 299 297
209 207 209 209 210 213 216 221 224 228 229 232 225 214 210 207 209 216 218 227 238 248 253 261 271 282 290 297 300 303 307 310 312 310 303 295 291 289 290 291 292 294 294 295 296 298 300 299 295
208 208 209 207 211 212 215 220 221 224 227 229 220 216 214 214 214 217 224 233 243 251 258 267 275 282 290 294 298 302 305 307 309 305 298 293 290 289 289 290 292 294 296 299 300 299 297 294 291
206 205 209 208 209 211 214 219 222 223 223 224 218 216 217 218 219 222 229 238 248 256 263 270 276 282 288 295 297 298 301 304 305 302 296 291 289 289 290 293 295 301 302 299 299 300 297 293 291
202 204 208 208 207 210 216 220 220 221 222 220 218 218 219 219 220 225 233 241 250 258 266 272 278 284 290 291 293 296 299 302 302 297 291 289 289 291 294 299 300 301 300 298 300 298 295 293 290
199 203 207 206 207 210 215 220 220 221 221 220 219 220 222 223 222 226 235 245 253 261 269 275 281 285 288 291 293 296 298 299 297 293 290 291 294 297 297 298 299 299 298 297 295 295 293 291 290
195 197 202 204 206 211 216 220 217 221 222 220 219 220 223 225 227 233 240 248 257 265 271 276 281 285 288 291 293 295 296 295 293 292 293 296 296 297 300 299 297 296 294 292 294 292 288 286 283
192 198 198 200 205 210 214 218 217 221 222 222 221 221 222 227 232 237 245 252 259 265 271 278 282 285 287 289 292 293 293 292 293 294 296 296 298 299 299 298 296 294 295 294 293 288 282 274 273
189 193 197 199 203 206 212 219 220 221 223 223 222 223 225 230 237 243 249 254 261 268 274 279 281 283 285 288 290 289 291 292 295 296 298 300 300 298 298 299 299 297 297 295 289 279 272 271 276
187 191 195 199 201 207 212 217 218 221 223 224 225 227 230 235 241 248 254 261 267 271 274 276 279 281 285 287 287 290 292 295 297 299 301 301 301 305 304 303 303 302 301 294 286 279 276 283 289
185 188 193 197 202 207 213 218 221 223 224 224 226 230 235 242 248 255 262 266 269 271 273 276 279 282 284 286 288 291 295 296 298 300 301 305 306 307 305 303 299 295 292 290 282 282 287 288 287
185 187 194 200 204 206 212 219 221 225 227 230 234 240 246 253 257 261 263 265 268 271 274 277 279 282 285 288 293 294 295 297 298 299 300 305 306 304 302 301 296 296 294 284 279 282 284 284 284
188 187 192 199 204 205 216 223 225 229 235 240 244 249 253 256 258 261 264 268 270 273 274 277 282 288 291 292 292 293 296 295 295 296 301 303 305 301 298 293 293 292 284 275 275 280 284 283 283
183 189 192 198 203 209 217 224 231 236 241 246 249 252 254 257 260 263 266 268 270 273 277 283 290 290 290 290 292 292 292 291 291 296 299 299 301 300 293 285 287 288 279 264 260 265 270 277 284
189 190 198 203 209 215 220 226 230 236 240 245 248 251 255 258 261 263 265 269 275 280 286 288 288 289 289 289 289 290 288 290 292 295 296 298 296 298 288 284 284 281 274 262 256 255 258 276 279
194 201 206 213 220 226 230 230 237 240 243 246 250 252 255 257 260 266 273 279 283 285 285 286 287 288 286 285 286 285 287 288 291 291 291 295 300 296 287 283 281 277 273 264 257 266 254 275 274
Height
5842 5846 5849 5853 5858 5861 5866 5867 5870 5871 5873 5873 5873 5874 5874 5873 5873 5876 5874 5874 5874 5874 5875 5875 5876 5877 5877 5878 5878 5878 5878 5878 5878 5877 5876 5876 5874 5873 5872 5871 5871 5869 5868 5867 5866 5864 5863 5862 5861
5837 5840 5843 5847 5852 5857 5864 5864 5867 5869 5871 5871 5872 5872 5872 5872 5871 5871 5873 5873 5874 5874 5875 5875 5876 5877 5878 5878 5878 5878 5878 5878 5877 5876 5876 5875 5874 5872 5871 5870 5869 5868 5867 5865 5864 5863 5861 5860 5859
5830 5833 5838 5840 5845 5851 5860 5861 5862 5866 5867 5869 5870 5870 5871 5870 5870 5871 5872 5873 5873 5874 5875 5876 5876 5877 5878 5878 5878 5878 5877 5877 5877 5876 5875 5874 5873 5871 5870 5868 5867 5866 5865 5864 5862 5861 5859 5858 5856
5823 5827 5831 5835 5842 5850 5853 5856 5859 5862 5864 5866 5867 5868 5869 5869 5869 5870 5871 5872 5873 5874 5875 5875 5876 5877 5878 5878 5877 5877 5876 5876 5876 5875 5874 5872 5871 5870 5868 5867 5865 5864 5863 5862 5860 5859 5857 5855 5854
5816 5821 5824 5830 5839 5845 5848 5852 5855 5857 5860 5862 5864 5865 5866 5867 5868 5868 5869 5871 5872 5873 5873 5875 5876 5876 5877 5877 5877 5876 5876 5875 5875 5874 5872 5871 5870 5868 5867 5866 5864 5862 5861 5859 5857 5855 5854 5852 5851
5807 5813 5818 5827 5837 5839 5845 5849 5851 5853 5856 5858 5860 5862 5863 5865 5866 5866 5867 5870 5870 5872 5873 5873 5874 5875 5875 5876 5876 5875 5875 5874 5873 5872 5870 5868 5867 5866 5864 5863 5861 5860 5858 5856 5854 5852 5850 5849 5848
5799 5807 5815 5828 5833 5834 5842 5845 5847 5848 5851 5853 5855 5857 5860 5862 5863 5865 5865 5867 5869 5870 5871 5872 5873 5874 5874 5874 5874 5874 5873 5872 5870 5869 5868 5866 5865 5864 5862 5861 5859 5856 5855 5853 5851 5849 5847 5845 5844
5795 5802 5811 5820 5824 5833 5837 5840 5843 5844 5845 5849 5850 5853 5855 5858 5860 5862 5864 5865 5868 5868 5870 5871 5872 5872 5873 5873 5873 5872 5871 5870 5868 5867 5866 5864 5863 5861 5859 5857 5855 5853 5851 5849 5848 5846 5844 5841 5840
5786 5793 5804 5814 5821 5830 5833 5835 5837 5840 5842 5843 5845 5848 5851 5854 5857 5860 5862 5862 5866 5867 5869 5870 5871 5871 5872 5872 5871 5870 5869 5868 5866 5865 5863 5861 5860 5857 5855 5853 5851 5849 5848 5846 5843 5841 5839 5837 5836
5780 5790 5802 5812 5819 5820 5828 5830 5833 5835 5838 5840 5841 5843 5848 5851 5854 5856 5860 5862 5864 5866 5867 5868 5869 5869 5870 5870 5869 5868 5867 5865 5864 5862 5860 5858 5856 5853 5851 5849 5847 5845 5843 5841 5839 5837 5835 5832 5829
5775 5784 5794 5802 5812 5817 5823 5825 5829 5831 5834 5835 5837 5840 5843 5847 5849 5853 5858 5861 5862 5865 5866 5867 5867 5867 5868 5868 5867 5865 5864 5863 5861 5859 5856 5854 5851 5849 5847 5845 5843 5841 5839 5836 5834 5831 5829 5826 5823
5770 5779 5784 5800 5808 5812 5817 5821 5825 5827 5830 5833 5835 5837 5840 5843 5846 5850 5855 5859 5861 5863 5864 5864 5865 5865 5866 5865 5863 5863 5861 5860 5857 5855 5852 5849 5847 5844 5842 5840 5838 5836 5833 5830 5828 5826 5823 5820 5817
5763 5772 5785 5799 5803 5807 5812 5817 5820 5823 5826 5829 5832 5834 5836 5839 5843 5848 5852 5855 5858 5860 5861 5862 5862 5863 5862 5862 5861 5860 5857 5856 5854 5851 5848 5845 5842 5840 5838 5836 5833 5830 5828 5824 5821 5818 5815 5812 5809
5756 5768 5782 5790 5797 5802 5807 5812 5815 5820 5823 5826 5828 5830 5833 5836 5841 5846 5850 5853 5855 5856 5857 5859 5859 5859 5859 5859 5857 5855 5854 5852 5850 5847 5844 5841 5838 5835 5833 5830 5828 5825 5821 5817 5814 5811 5807 5804 5800
5751 5766 5777 5785 5791 5797 5803 5807 5811 5816 5819 5822 5824 5827 5830 5834 5838 5843 5846 5849 5851 5853 5855 5855 5856 5856 5855 5854 5853 5852 5850 5848 5845 5842 5839 5836 5833 5830 5827 5824 5821 5818 5814 5810 5806 5802 5798 5795 5792
5749 5760 5770 5779 5786 5793 5799 5803 5809 5812 5815 5818 5821 5824 5827 5831 5835 5840 5843 5846 5848 5850 5851 5852 5852 5851 5851 5850 5849 5847 5845 5842 5839 5836 5833 5830 5827 5824 5821 5817 5814 5810 5806 5801 5797 5793 5789 5785 5783
5744 5757 5766 5776 5782 5789 5795 5798 5803 5808 5812 5815 5818 5821 5825 5829 5832 5836 5840 5842 5844 5846 5847 5848 5848 5847 5846 5845 5844 5842 5839 5836 5833 5830 5826 5823 5819 5816 5813 5809 5805 5801 5797 5792 5787 5783 5779 5776 5774
5743 5753 5762 5771 5779 5784 5790 5794 5800 5804 5808 5812 5815 5818 5822 5826 5829 5834 5836 5838 5840 5842 5843 5843 5843 5842 5841 5840 5838 5836 5833 5830 5827 5822 5819 5815 5811 5808 5804 5800 5796 5792 5787 5782 5778 5774 5771 5768 5766
5739 5750 5757 5765 5776 5781 5788 5792 5796 5800 5804 5808 5811 5814 5818 5822 5826 5830 5832 5834 5836 5837 5838 5838 5838 5837 5836 5834 5832 5830 5826 5823 5819 5815 5811 5807 5803 5799 5795 5790 5786 5781 5776 5773 5770 5765 5762 5759 5757
5733 5744 5755 5767 5773 5778 5784 5788 5792 5796 5800 5804 5808 5811 5814 5819 5823 5825 5827 5829 5831 5832 5833 5833 5832 5831 5829 5827 5825 5822 5819 5815 5811 5807 5803 5798 5794 5789 5784 5779 5774 5770 5766 5763 5759 5756 5752 5750 5748
5732 5743 5753 5762 5769 5775 5781 5784 5789 5792 5796 5800 5803 5807 5811 5815 5818 5821 5823 5825 5826 5826 5827 5827 5826 5824 5822 5820 5817 5814 5810 5806 5802 5798 5794 5790 5784 5779 5773 5768 5764 5760 5755 5752 5749 5746 5743 5741 5740
5730 5741 5750 5759 5765 5771 5775 5780 5784 5789 5793 5797 5800 5804 5807 5811 5814 5817 5818 5820 5820 5821 5821 5820 5818 5817 5814 5811 5808 5805 5801 5797 5793 5789 5785 5780 5774 5768 5763 5757 5752 5748 5744 5740 5737 5736 5735 5734 5733
5731 5740 5748 5755 5761 5767 5772 5777 5782 5785 5789 5793 5797 5800 5803 5806 5809 5811 5813 5813 5814 5814 5814 5812 5811 5809 5806 5803 5799 5795 5791 5787 5783 5779 5774 5769 5764 5758 5752 5746 5742 5737 5734 5730 5728 5728 5728 5728 5727
5730 5739 5746 5752 5758 5764 5769 5775 5779 5783 5787 5790 5794 5797 5799 5801 5803 5805 5806 5807 5807 5807 5806 5804 5802 5800 5797 5794 5790 5786 5782 5778 5774 5769 5763 5758 5752 5747 5742 5739 5734 5730 5726 5724 5723 5724 5724 5724 5723
5729 5736 5743 5750 5755 5763 5768 5772 5776 5780 5783 5787 5790 5793 5795 5797 5798 5799 5800 5800 5800 5799 5797 5795 5793 5791 5788 5784 5780 5776 5772 5768 5764 5759 5753 5748 5744 5740 5736 5732 5728 5725 5722 5720 5720 5721 5721 5721 5720
5732 5737 5744 5750 5756 5762 5765 5767 5773 5778 5781 5784 5786 5789 5790 5792 5792 5793 5793 5792 5791 5789 5788 5786 5783 5780 5777 5774 5770 5766 5762 5758 5754 5749 5745 5740 5737 5733 5730 5726 5723 5720 5718 5718 5718 5718 5718 5717 5716
5735 5739 5745 5751 5755 5760 5763 5768 5772 5775 5778 5780 5782 5783 5784 5785 5785 5784 5784 5783 5782 5781 5779 5776 5773 5770 5767 5764 5760 5756 5752 5748 5744 5740 5737 5733 5729 5725 5722 5720 5718 5716 5714 5714 5715 5715 5715 5714 5712
5736 5741 5746 5749 5753 5757 5760 5764 5768 5771 5773 5775 5776 5776 5776 5776 5776 5776 5775 5774 5772 5770 5768 5766 5763 5760 5756 5753 5749 5745 5741 5738 5735 5732 5729 5726 5722 5719 5716 5715 5712 5711 5710 5710 5710 5710 5710 5709 5708
5738 5741 5745 5748 5752 5754 5757 5761 5763 5765 5767 5768 5769 5769 5769 5769 5768 5768 5766 5764 5762 5760 5758 5756 5753 5749 5746 5742 5738 5735 5732 5730 5727 5724 5720 5718 5715 5712 5710 5708 5707 5705 5705 5705 5704 5705 5705 5704 5704
5738 5741 5744 5746 5750 5752 5753 5758 5758 5759 5760 5760 5761 5761 5761 5760 5758 5757 5756 5754 5752 5750 5748 5745 5742 5738 5735 5732 5729 5727 5725 5721 5718 5715 5713 5711 5708 5705 5703 5702 5701 5700 5699 5699 5699 5699 5699 5698 5698